Location: Arbon
(43.0005°N, 0.7472°E)
Time: 05:09:54
(UTC+00:00)

Vanguard 2 Rocket - Pass Details

Date: 25 June 2021
Orbit: 554 x 3325 km, 32.9° (Epoch: 26 July)

Event Time Altitude Azimuth Distance (km) Brightness Sun altitude
Rises 22:42:58 0° 278° (W) 7,239 11.8 -21.3°
Reaches altitude 10° 22:48:39 10° 271° (W) 6,027 11.3 -21.6°
Maximum altitude 23:03:54 37° 214° (SW) 3,323 9.4 -22.4°
Enters shadow 23:08:13 30° 181° (S) 3,257 9.1 -22.6°
